This demonstration page uses our WeatherBlox Daily Observations layout. Learn more.

Left ArrowRight Arrow

Hourly Observations for October 26, 2021

Temp ( °F °C ) Dew Point ( °F °C ) Humidity (%) Winds ( mph kmh ) Pressure ( in mb ) Visibility ( mi km ) Precip ( " mm )
12:15 am 00:15 Cloudy 47 8.3 44 6.7 90 90 SE 16 26 29.91 1013 10 16 N/A
12:35 am 00:35 Cloudy 47 8.2 44 6.7 90 90 SSE 20 31 29.89 1012 10 16 N/A
12:55 am 00:55 Cloudy 47 8.1 44 6.6 90 90 SE 16 26 29.88 1012 10 16 N/A
1:15 am 01:15 Cloudy 46 8 44 6.5 90 90 SE 15 24 29.87 1011 10 16 N/A
1:35 am 01:35 Cloudy 46 7.8 44 6.5 92 92 SE 16 26 29.87 1012 10 16 N/A
1:55 am 01:55 Cloudy 46 7.8 44 6.5 92 92 SE 15 24 29.86 1011 10 16 N/A
2:15 am 02:15 Cloudy 46 8 44 6.6 91 91 SE 16 26 29.86 1011 10 16 N/A
2:35 am 02:35 Cloudy 46 7.7 44 6.7 93 93 SE 16 26 29.85 1011 10 16 N/A
2:55 am 02:55 Cloudy 46 7.7 44 6.7 93 93 SE 16 26 29.85 1011 10 16 N/A
3:15 am 03:15 Cloudy 46 8 44 6.7 92 92 SE 15 24 29.84 1010 10 16 N/A
3:35 am 03:35 Cloudy 47 8.2 44 6.7 90 90 SSE 14 22 29.84 1010 10 16 N/A
3:55 am 03:55 Cloudy 47 8.3 44 6.8 90 90 SSE 16 26 29.83 1010 10 16 N/A
4:15 am 04:15 Cloudy 47 8.3 44 6.8 90 90 SSE 18 30 29.81 1009 10 16 N/A
4:35 am 04:35 Cloudy 47 8.3 44 6.9 91 91 SSE 16 26 29.80 1009 10 16 N/A
4:55 am 04:55 Cloudy 47 8.3 44 6.9 91 91 SSE 22 35 29.79 1009 10 16 N/A
5:15 am 05:15 Cloudy 47 8.2 44 6.9 92 92 SSE 18 30 29.78 1008 10 16 N/A
5:35 am 05:35 Cloudy 47 8.1 45 7 93 93 SE 17 28 29.78 1008 10 16 N/A
5:55 am 05:55 Cloudy 47 8.2 45 7 92 92 SSE 20 31 29.77 1008 10 16 N/A
6:15 am 06:15 Cloudy 47 8.1 45 7 93 93 SE 16 26 29.77 1008 10 16 N/A
6:35 am 06:35 Cloudy 47 8.1 45 7 93 93 SE 16 26 29.76 1008 10 16 N/A
6:55 am 06:55 Cloudy 46 8 45 7 93 93 SE 20 31 29.75 1007 10 16 N/A
7:15 am 07:15 Cloudy 47 8.1 45 7.1 93 93 SE 17 28 29.74 1007 10 16 N/A
7:35 am 07:35 Cloudy 47 8.1 45 7 93 93 SE 16 26 29.73 1007 10 16 N/A
7:55 am 07:55 Cloudy with Mist and Fog 46 7.9 45 7 94 94 SE 17 28 29.73 1007 3 5 N/A
8:15 am 08:15 Cloudy with Mist and Fog 46 7.8 45 7.2 96 96 SE 18 30 29.71 1006 2 3 N/A
8:35 am 08:35 Cloudy with Mist and Fog 46 7.8 45 7.3 97 97 SE 20 31 29.71 1006 3 4 N/A
8:55 am 08:55 Cloudy with Mist and Fog 46 8 46 7.5 97 97 SE 16 26 29.70 1006 3 4 N/A
9:15 am 09:15 Cloudy with Mist and Fog 46 7.8 45 7.3 97 97 SSE 17 28 29.70 1006 3 5 N/A
9:35 am 09:35 Cloudy with Mist and Fog 46 7.8 45 7.3 97 97 SSE 20 31 29.69 1005 4 6 N/A
9:55 am 09:55 Cloudy with Mist and Fog 46 7.8 45 7.3 97 97 SE 16 26 29.68 1005 3 5 N/A
10:15 am 10:15 Cloudy with Mist and Fog 46 8 45 7.3 95 95 SE 17 28 29.68 1005 3 4 N/A
10:35 am 10:35 Cloudy with Mist and Fog 47 8.1 46 7.6 97 97 SSE 17 28 29.67 1005 2 2 N/A
10:55 am 10:55 Cloudy with Mist and Fog 47 8.4 46 7.9 97 97 SSE 16 26 29.66 1004 2 2 N/A
11:15 am 11:15 Cloudy with Mist and Fog 47 8.6 47 8.2 97 97 SE 15 24 29.64 1004 2 2 N/A
11:35 am 11:35 Cloudy with Mist and Fog 48 9 47 8.5 97 97 SE 17 28 29.62 1003 2 3 N/A
11:55 am 11:55 Cloudy with Mist and Fog 49 9.3 48 9 98 98 SE 17 28 29.61 1003 2 2 N/A
12:15 pm 12:15 Cloudy with Mist and Fog 49 9.6 49 9.2 97 97 SSE 18 30 29.59 1002 2 3 N/A
12:35 pm 12:35 Cloudy with Mist and Fog 50 10 49 9.5 97 97 SSE 18 30 29.59 1002 3 4 N/A
12:55 pm 12:55 Cloudy with Mist and Fog 51 10.5 50 9.8 95 95 SSE 18 30 29.57 1001 3 4 N/A
1:15 pm 13:15 Cloudy with Mist and Fog 52 10.9 50 10.2 95 95 SSE 17 28 29.55 1001 4 6 N/A
1:35 pm 13:35 Cloudy with Mist and Fog 53 11.4 51 10.7 96 96 SSE 18 30 29.53 1000 5 8 N/A
1:55 pm 13:55 Cloudy 54 12 52 11 94 94 SE 12 19 29.51 999 7 11 N/A
2:15 pm 14:15 Cloudy 55 12.5 52 11.1 91 91 SE 14 22 29.50 999 10 16 N/A
2:35 pm 14:35 Cloudy 56 13.5 53 11.5 88 88 SE 15 24 29.47 998 10 16 N/A
2:55 pm 14:55 Cloudy 59 15.1 54 12.1 82 82 SE 15 24 29.44 997 10 16 N/A
3:15 pm 15:15 Cloudy 62 16.7 55 12.5 76 76 SE 23 37 29.41 996 10 16 N/A
3:35 pm 15:35 Partly Cloudy 65 18.6 55 12.9 70 70 SSE 23 37 29.39 995 10 16 N/A
3:55 pm 15:55 Mostly Cloudy 67 19.3 55 13 67 67 SE 25 41 29.37 995 10 16 N/A
4:15 pm 16:15 Partly Cloudy 68 19.9 56 13.5 67 67 SE 23 37 29.35 994 10 16 N/A
4:35 pm 16:35 Mostly Cloudy 68 20.1 57 13.8 67 67 SE 23 37 29.36 994 10 16 N/A
4:55 pm 16:55 Mostly Cloudy 67 19.7 57 14 70 70 SE 21 33 29.36 994 10 16 N/A
5:15 pm 17:15 Cloudy 67 19.6 57 14.1 71 71 SE 25 41 29.34 993 10 16 N/A
5:35 pm 17:35 Cloudy 65 18.6 57 14.1 75 75 SE 21 33 29.35 994 10 16 N/A
5:55 pm 17:55 Mostly Cloudy 64 17.8 58 14.2 80 80 SE 20 31 29.35 994 10 16 N/A
6:15 pm 18:15 Cloudy 64 17.5 58 14.5 83 83 SE 20 31 29.37 994 10 16 N/A
6:35 pm 18:35 Cloudy 63 17.4 58 14.7 84 84 SE 20 31 29.37 994 10 16 N/A
6:55 pm 18:55 Cloudy 63 17 59 15 88 88 SE 20 31 29.37 995 10 16 N/A
7:15 pm 19:15 Cloudy 63 17 59 15.2 89 89 SE 17 28 29.38 995 7 11 N/A
7:35 pm 19:35 Cloudy 62 16.9 60 15.4 91 91 SE 20 31 29.39 995 7 11 N/A
7:55 pm 19:55 Cloudy 63 17.2 60 15.6 90 90 SE 18 30 29.38 995 7 11 N/A
8:15 pm 20:15 Cloudy 64 17.5 60 15.8 90 90 SE 21 33 29.35 994 7 11 N/A
8:35 pm 20:35 Cloudy 64 17.6 61 16 90 90 SE 20 31 29.36 994 10 16 N/A
8:55 pm 20:55 Cloudy 64 18 61 16.2 89 89 SE 18 30 29.35 994 10 16 N/A
9:15 pm 21:15 Cloudy 65 18.5 62 16.5 88 88 SSE 22 35 29.38 995 10 16 N/A
9:35 pm 21:35 Cloudy with Nearby Thunderstorms 65 18.6 62 16.7 89 89 S 20 31 29.42 996 10 16 N/A
9:55 pm 21:55 Cloudy 65 18.5 63 17 91 91 SE 26 43 29.38 995 7 11 0.05 1.27
10:15 pm 22:15 Cloudy 65 18.5 60 15.5 83 83 ESE 21 33 29.35 994 10 16 N/A
10:35 pm 22:35 Mostly Cloudy 65 18.5 53 11.7 65 65 ESE 22 35 29.35 994 10 16 N/A
10:55 pm 22:55 Partly Cloudy 64 17.6 58 14.2 81 81 SSE 17 28 29.35 994 10 16 N/A
11:15 pm 23:15 Clear 62 16.7 59 15 90 90 WNW 12 19 29.44 997 10 16 N/A
11:35 pm 23:35 Partly Cloudy 63 17.4 57 13.7 79 79 W 7 11 29.45 997 10 16 N/A
11:55 pm 23:55 Partly Cloudy 58 14.6 53 11.6 82 82 NW 14 22 29.49 999 10 16 N/A

Powered by AerisWeather